Satellite-Ground Cal/Val Region Overpasses Predictions

Prediction of Satellite NPP Overpassing Cal/Val Region: PacNW

Region Location: (Latitude: 10.00, Longitude: 139.50) to (Latitude: 22.70, Longitude: 165.60).

Table of predicted overpasses for the next 14.0 days since TLE Epoch: 1/8/2022
Interval Starting Time Starting Location Ending Time Ending Location
1 01/08/2022 02:52:54 ( 10.62, 156.51) 01/08/2022 02:56:19 ( 22.65, 153.64)
2 01/08/2022 15:24:36 ( 22.70, 153.88) 01/08/2022 15:28:12 ( 10.01, 150.87)
3 01/09/2022 02:33:41 ( 10.02, 161.41) 01/09/2022 02:37:17 ( 22.70, 158.39)
4 01/09/2022 15:05:33 ( 22.65, 158.63) 01/09/2022 15:09:08 ( 10.03, 155.63)
5 01/10/2022 02:15:20 ( 12.53, 165.59) 01/10/2022 02:18:13 ( 22.69, 163.16)
6 01/10/2022 03:56:07 ( 10.02, 140.80) 01/10/2022 03:57:42 ( 15.60, 139.50)
7 01/10/2022 14:46:30 ( 22.66, 163.40) 01/10/2022 14:50:05 ( 10.04, 160.40)
8 01/11/2022 03:37:04 ( 10.01, 145.56) 01/11/2022 03:40:40 ( 22.69, 142.55)
9 01/11/2022 14:30:30 ( 11.93, 165.59) 01/11/2022 14:31:02 ( 10.05, 165.16)
10 01/11/2022 16:08:57 ( 22.66, 142.79) 01/11/2022 16:12:32 ( 10.04, 139.79)
11 01/12/2022 03:18:01 ( 10.05, 150.31) 01/12/2022 03:21:36 ( 22.68, 147.31)
12 01/12/2022 15:49:53 ( 22.67, 147.55) 01/12/2022 15:53:28 ( 10.05, 144.55)
13 01/13/2022 02:58:58 ( 10.04, 155.08) 01/13/2022 03:02:33 ( 22.66, 152.08)
14 01/13/2022 15:30:50 ( 22.69, 152.32) 01/13/2022 15:34:26 ( 10.01, 149.30)
15 01/14/2022 02:39:54 ( 10.03, 159.84) 01/14/2022 02:43:29 ( 22.65, 156.84)
16 01/14/2022 15:11:46 ( 22.70, 157.08) 01/14/2022 15:15:22 ( 10.02, 154.07)
17 01/15/2022 02:20:51 ( 10.02, 164.61) 01/15/2022 02:24:26 ( 22.64, 161.61)
18 01/15/2022 14:52:44 ( 22.65, 161.83) 01/15/2022 14:56:19 ( 10.03, 158.83)
19 01/16/2022 03:43:17 ( 10.02, 144.00) 01/16/2022 03:46:52 ( 22.65, 141.00)
20 01/16/2022 14:34:50 ( 18.55, 165.59) 01/16/2022 14:37:15 ( 10.04, 163.60)
21 01/16/2022 16:15:10 ( 22.65, 141.22) 01/16/2022 16:17:10 ( 15.61, 139.51)
22 01/17/2022 03:24:14 ( 10.01, 148.76) 01/17/2022 03:27:50 ( 22.70, 145.75)
23 01/17/2022 15:56:07 ( 22.66, 145.98) 01/17/2022 15:59:42 ( 10.04, 142.98)
24 01/18/2022 03:05:11 ( 10.00, 153.53) 01/18/2022 03:08:47 ( 22.69, 150.51)
25 01/18/2022 15:37:03 ( 22.67, 150.75) 01/18/2022 15:40:38 ( 10.05, 147.75)
26 01/19/2022 02:46:08 ( 10.05, 158.28) 01/19/2022 02:49:43 ( 22.68, 155.28)
27 01/19/2022 15:18:00 ( 22.68, 155.51) 01/19/2022 15:21:35 ( 10.06, 152.51)
28 01/20/2022 02:27:05 ( 10.05, 163.04) 01/20/2022 02:30:40 ( 22.67, 160.04)
29 01/20/2022 14:58:56 ( 22.68, 160.28) 01/20/2022 15:02:32 ( 10.01, 157.27)
30 01/21/2022 02:10:42 ( 19.49, 165.59) 01/21/2022 02:11:36 ( 22.66, 164.81)
31 01/21/2022 03:49:31 ( 10.05, 142.43) 01/21/2022 03:53:01 ( 22.38, 139.50)
32 01/21/2022 14:39:53 ( 22.69, 165.04) 01/21/2022 14:43:29 ( 10.01, 162.03)
